Location: Ch�risy
(50.2331°N, 2.9131°E)
Time: 20:09:44
(UTC+00:00)

Cosmos 1025 Rocket - Pass Details

Date: 17 January 2021
Orbit: 594 x 618 km, 82.5° (Epoch: 27 February)

Event Time Altitude Azimuth Distance (km) Brightness Sun altitude
Rises 17:25:52 0° 202° (SSW) 2,843 7.1 -10.7°
Reaches altitude 10° 17:28:07 10° 208° (SSW) 1,949 6.3 -11.0°
Maximum altitude 17:32:19 51° 284° (WNW) 771 3.9 -11.6°
Drops below altitude 10° 17:36:36 10° 1° (N) 1,979 5.5 -12.3°
Sets 17:38:53 0° 7° (N) 2,893 6.3 -12.6°
